This is the latest recevied weather packets stored in our database for station/object W4DEX-2. If no packets are shown the sender has not sent any weather packets the latest 10 day(s).
| Time | Temp. | Humidity | Pressure | Rain* | Wind** | Luminosity | Snow |
|---|---|---|---|---|---|---|---|
| 1777551002 | 13.89° C | 78% | 1011.4 hPa | 0 mm | 5.36 m/s, 179° | - | - |
| 1777550702 | 15° C | 80% | 1010.9 hPa | 0 mm | 5.81 m/s, 180° | - | - |
| 1777550403 | 15° C | 70% | 1010.7 hPa | 0 mm | 4.92 m/s, 182° | - | - |
| 1777550103 | 15° C | 72% | 1010.7 hPa | 0 mm | 4.92 m/s, 177° | - | - |
| 1777549802 | 15° C | 72% | 1010.7 hPa | 0 mm | 4.92 m/s, 177° | - | - |
| 1777549502 | 15° C | 70% | 1010.5 hPa | 0 mm | 4.02 m/s, 179° | - | - |
| 1777549202 | 15.56° C | 65% | 1010.4 hPa | 0 mm | 3.58 m/s, 183° | - | - |
| 1777548602 | 15.56° C | 63% | 1009.5 hPa | 0 mm | 4.47 m/s, 172° | - | - |
| 1777548302 | 15.56° C | 64% | 1009.3 hPa | 0 mm | 4.92 m/s, 169° | - | - |
| 1777548002 | 15.56° C | 63% | 1009.1 hPa | 0 mm | 4.92 m/s, 174° | - | - |
| 1777547102 | 15.56° C | 64% | 1009.5 hPa | 0 mm | 5.36 m/s, 177° | - | - |
| 1777546802 | 16.11° C | 64% | 1009.2 hPa | 0 mm | 4.47 m/s, 178° | - | - |
| 1777546503 | 16.11° C | 63% | 1009 hPa | 0 mm | 4.92 m/s, 175° | - | - |
| 1777546203 | 16.11° C | 63% | 1008.8 hPa | 0 mm | 3.58 m/s, 170° | - | - |
| 1777545903 | 15.56° C | 65% | 1008.8 hPa | 0 mm | 2.68 m/s, 157° | - | - |
| 1777545603 | 15.56° C | 68% | 1008.8 hPa | 0 mm | 4.02 m/s, 169° | - | - |
| 1777545306 | 15.56° C | 70% | 1008.7 hPa | 0 mm | 4.47 m/s, 173° | - | - |
| 1777544702 | 15.56° C | 72% | 1008.6 hPa | 0 mm | 4.02 m/s, 176° | - | - |
| 1777544402 | 15.56° C | 72% | 1008.4 hPa | 0 mm | 4.47 m/s, 177° | - | - |
| 1777542902 | 16.11° C | 67% | 1008.9 hPa | 0 mm | 4.47 m/s, 173° | - | - |
| 1777542602 | 16.11° C | 66% | 1009 hPa | 0 mm | 4.47 m/s, 167° | - | - |
| 1777542302 | 16.11° C | 65% | 1009.1 hPa | 0 mm | 4.47 m/s, 169° | - | - |
| 1777542002 | 16.67° C | 65% | 1009.2 hPa | 0 mm | 4.92 m/s, 172° | - | - |
| 1777540502 | 16.67° C | 67% | 1009.1 hPa | 0 mm | 2.68 m/s, 160° | - | - |
| 1777540202 | 16.67° C | 68% | 1009.2 hPa | 0 mm | 3.58 m/s, 175° | - | - |
* Rain latest hour (hover to see other rain measurements)
** Current wind speed in m/s (hover to see current wind gust speed)